346  
ASUS42 KKEY 262010  
RWRKEY  
 
FLORIDA REGIONAL WEATHER ROUNDUP FOR THE FLORIDA KEYS  
NATIONAL WEATHER SERVICE KEY WEST FLORIDA  
400 PM EDT THU MAY 26 2016  
   
..SOUTH FLORIDA AND THE KEYS
 
 
 
CITY SKY/WX TMP DP RH WIND PRES REMARKS
 
FORT MYERS PTSUNNY 87 60 40 E9 30.03F  
SW REGIONAL AP FAIR 87 60 40 E14G23 30.03F  
NAPLES PTSUNNY 89 59 36 E16 30.01F  
MIAMI PTSUNNY 83 65 54 NE15G22 30.03F  
WEST KENDALL PTSUNNY 84 64 50 E17G24 30.03F  
HOMESTEAD FAIR 83 67 58 NE12 30.02F  
MARATHON FAIR 86 62 44 NE12 30.02F  
BOCA CHICA NAS FAIR 86 61 42 E13 30.02F  
KEY WEST INTL PTSUNNY 84 62 47 VRB7 30.02F  
   
..INTERNATIONAL WEATHER
 
 
 
CITY SKY/WX TMP DP RH WIND PRES REMARKS
 
NASSAU BAHAMAS PTSUNNY 82 72 69 NE14 30.03F  
CANCUN MEXICO MOSUNNY 90 73 58 NE9 29.96F HX 98  
COZUMEL MEXICO PTSUNNY 82 75 78 NW5 29.95F  
 
ADJACENT COASTAL WATERS...  
 
STATION/POSITION TIME SKY/WX TEMP WIND PRES WAVE
 
AIR SEA DIR/SP/G HT/PER  
(UTC) (F) (DEG/KT/KT) (MB) (FT/S)  
PULASKI SHOAL LI 2000 80 70/ 12/ 16 1017.0F  
SAND KEY 1950 80 100/ 13/ 15 1017.0F  
SOMBRERO KEY NOT AVBL  
LONG KEY 1900 80 83 20/ 6/ 14 1017.5F  
MOLASSES REEF NOT AVBL  
FOWEY ROCKS 2000 79 83 60/ 15/ 16 1017.5F  
 

 
 
 
CLICK HERE TO GO TO PREVIOUS BULLETINS.

The Nexlab FL Page Main Text Page